[Date Prev][Date Next][Thread Prev][Thread Next] - [Date Index][Thread Index][Author Index]
2 Line ISS Keps 1-5
- Subject: [sarex] 2 Line ISS Keps 1-5
- From: "Dave Larsen PhD" <doc@xxxxxxxxxxx>
- Date: Sat, 5 Jan 2002 03:52:38 -0800
ISS
1 25544U 98067A 02005.17630787 .00066486 00000-0 74458-3 0 9223
2 25544 51.6412 152.2332 0002445 77.0599 280.2291 15.62067073178592
----
Via the sarex mailing list at AMSAT.ORG courtesy of AMSAT-NA.
To unsubscribe, send "unsubscribe sarex" to Majordomo@amsat.org
AMSAT Home